DW0148 Weather Reports


time (UTC)temp
F
wind
direction
speed
knots
gust
knots
rain 1hr
in
rain 24hr
in
rain mn
in
humidity
%
barometer
mb
20260831000545 78 146 0.0 0.0 0.00 0.00 0.00 90 1016.6
20260831000042 78 146 0.0 0.0 0.00 0.00 0.00 89 1016.6
20260830235436 79 146 0.0 0.0 0.00 0.00 0.00 89 1016.6
20260830234934 79 146 0.0 0.0 0.00 0.00 0.00 88 1016.6
20260830234433 80 146 0.0 0.0 0.00 0.00 0.00 88 1016.6
20260830233859 80 147 0.0 0.0 0.00 0.00 0.00 87 1016.6
20260830233351 80 146 0.0 0.0 0.00 0.00 0.00 86 1016.6
20260830232849 81 146 0.0 0.0 0.00 0.00 0.00 86 1016.6
20260830232345 81 147 0.0 0.0 0.00 0.00 0.00 85 1016.6
20260830231843 81 146 0.0 0.0 0.00 0.00 0.00 83 1016.6
20260830231342 82 146 0.0 0.0 0.00 0.00 0.00 83 1016.6
20260830230839 82 146 0.0 0.0 0.00 0.00 0.00 82 1016.6
20260830230330 83 146 0.0 0.0 0.00 0.00 0.00 80 1016.3
20260830225828 83 146 0.0 0.0 0.00 0.00 0.00 79 1016.6
20260830225326 83 147 0.0 0.0 0.00 0.00 0.00 79 1016.3
20260830224820 84 147 0.0 0.0 0.00 0.00 0.00 77 1016.3
20260830224318 84 146 0.0 0.0 0.00 0.00 0.00 76 1016.3
20260830223815 85 146 0.0 0.0 0.00 0.00 0.00 75 1016.3
20260830223306 85 146 0.0 0.0 0.00 0.00 0.00 73 1016.3
20260830222804 86 148 0.0 0.0 0.00 0.00 0.00 73 1016.3
20260830222259 86 146 0.0 0.0 0.00 0.00 0.00 72 1016.3
20260830221756 87 146 0.0 0.0 0.00 0.00 0.00 69 1016.3
20260830221253 87 146 0.0 0.0 0.00 0.00 0.00 68 1016.3
20260830220747 88 146 0.0 0.0 0.00 0.00 0.00 63 1016.3
20260830220244 88 146 0.0 0.0 0.00 0.00 0.00 61 1016.3
20260830215741 88 179 0.0 0.0 0.00 0.00 0.00 63 1016.3
20260830215239 88 221 0.0 0.0 0.00 0.00 0.00 63 1016.3
20260830214737 89 255 0.0 0.0 0.00 0.00 0.00 57 1016.3
20260830214123 89 255 0.0 0.0 0.00 0.00 0.00 64 1016.3
20260830213621 90 254 0.0 0.0 0.00 0.00 0.00 58 1016.3
20260830213048 90 242 0.0 0.0 0.00 0.00 0.00 60 1016.3
20260830212441 90 242 0.0 0.0 0.00 0.00 0.00 60 1016.3
20260830211938 90 139 0.0 0.0 0.00 0.00 0.00 61 1016.6
20260830211437 91 246 0.0 0.0 0.00 0.00 0.00 58 1016.6
20260830210901 91 148 0.0 0.0 0.00 0.00 0.00 61 1016.6
20260830210255 91 223 0.0 0.0 0.00 0.00 0.00 61 1016.6
20260830205722 91 224 0.0 0.0 0.00 0.00 0.00 60 1016.6
20260830205148 91 208 0.0 0.0 0.00 0.00 0.00 59 1016.6
20260830204644 91 249 0.0 0.0 0.00 0.00 0.00 62 1016.6
20260830204142 91 200 0.0 0.0 0.00 0.00 0.00 61 1016.6
20260830203637 91 191 0.0 0.0 0.00 0.00 0.00 61 1016.6
20260830203133 91 229 0.0 0.0 0.00 0.00 0.00 64 1016.6
20260830202631 91 228 0.0 0.0 0.00 0.00 0.00 64 1016.6
20260830202130 91 263 0.0 0.0 0.00 0.00 0.00 62 1016.9
20260830201628 91 356 0.0 0.0 0.00 0.00 0.00 63 1016.9
20260830201126 91 13 0.0 0.0 0.00 0.00 0.00 63 1016.9
20260830200625 91 23 0.0 0.0 0.00 0.00 0.00 62 1017.3
20260830200123 91 255 0.0 0.0 0.00 0.00 0.00 63 1017.3
20260830195620 91 195 0.0 0.0 0.00 0.00 0.00 64 1017.3
20260830195118 91 284 0.0 0.0 0.00 0.00 0.00 66 1017.3
20260830194615 91 262 0.0 0.0 0.00 0.00 0.00 67 1017.6
20260830194113 91 290 0.0 0.0 0.00 0.00 0.00 63 1017.6
20260830193540 91 314 0.0 0.0 0.00 0.00 0.00 65 1017.6
20260830193039 90 56 0.0 0.0 0.00 0.00 0.00 67 1017.6
20260830192532 90 60 0.0 0.0 0.00 0.00 0.00 64 1017.6
20260830192030 90 283 0.0 0.0 0.00 0.00 0.00 64 1017.6
20260830191521 90 228 0.0 0.0 0.00 0.00 0.00 62 1017.9
20260830191019 90 262 0.0 0.0 0.00 0.00 0.00 64 1017.9
20260830190446 90 177 0.0 0.0 0.00 0.00 0.00 66 1017.9
20260830185943 90 343 0.0 0.0 0.00 0.00 0.00 65 1017.9
20260830185410 90 77 0.0 0.0 0.00 0.00 0.00 67 1018.3
20260830184908 90 58 0.0 0.0 0.00 0.00 0.00 62 1018.3
20260830184333 90 246 0.0 0.0 0.00 0.00 0.00 66 1018.3
20260830183832 90 211 0.0 0.0 0.00 0.00 0.00 66 1018.3
20260830183329 90 46 0.0 0.0 0.00 0.00 0.00 64 1018.3
20260830182823 90 287 0.0 0.0 0.00 0.00 0.00 65 1018.6
20260830182315 90 322 0.0 0.0 0.00 0.00 0.00 65 1018.6
20260830181811 89 8 0.0 0.0 0.00 0.00 0.00 66 1019.0
20260830181307 89 173 0.0 0.0 0.00 0.00 0.00 68 1019.0
20260830180806 89 257 0.0 0.0 0.00 0.00 0.00 68 1019.0
20260830180259 89 176 0.0 0.0 0.00 0.00 0.00 66 1019.0
20260830175756 88 226 0.0 0.0 0.00 0.00 0.00 69 1019.0
20260830175253 88 90 0.0 0.0 0.00 0.00 0.00 66 1019.0
20260830174647 87 46 0.0 0.0 0.00 0.00 0.00 72 1019.3
20260830174113 86 246 0.0 0.0 0.00 0.00 0.00 75 1019.3
20260830173539 87 53 0.0 0.0 0.00 0.00 0.00 71 1019.3
20260830173004 87 32 0.0 0.0 0.00 0.00 0.00 70 1019.3
20260830172500 87 208 0.0 0.0 0.00 0.00 0.00 69 1019.3
20260830171959 87 131 0.0 0.0 0.00 0.00 0.00 70 1019.6
20260830171424 86 183 0.0 0.0 0.00 0.00 0.00 70 1019.6
20260830170819 86 141 0.0 0.0 0.00 0.00 0.00 74 1019.6
20260830170316 86 203 0.0 0.0 0.00 0.00 0.00 72 1019.6
20260830165813 86 211 0.0 0.0 0.00 0.00 0.00 71 1019.6
20260830165311 86 218 0.0 0.0 0.00 0.00 0.00 71 1020.0
20260830164808 87 131 0.0 0.0 0.00 0.00 0.00 71 1020.0
20260830164305 86 98 0.0 0.0 0.00 0.00 0.00 71 1020.0
20260830163730 86 238 0.0 0.0 0.00 0.00 0.00 75 1020.0
20260830163228 85 212 0.0 0.0 0.00 0.00 0.00 75 1020.3
20260830162727 85 136 0.0 0.0 0.00 0.00 0.00 74 1020.3
20260830162223 84 240 0.0 0.0 0.00 0.00 0.00 75 1020.3
20260830161721 84 225 0.0 0.0 0.00 0.00 0.00 75 1020.3
20260830161219 84 77 0.0 0.0 0.00 0.00 0.00 76 1020.3
20260830160718 84 220 0.0 0.0 0.00 0.00 0.00 80 1020.3
20260830160212 83 240 0.0 0.0 0.00 0.00 0.00 82 1020.3
20260830155603 83 240 0.0 0.0 0.00 0.00 0.00 80 1020.3
20260830155101 83 240 0.0 0.0 0.00 0.00 0.00 80 1020.3
20260830154559 83 162 0.0 0.0 0.00 0.00 0.00 78 1020.3
20260830154020 83 226 0.0 0.0 0.00 0.00 0.00 79 1020.3
20260830153446 83 226 0.0 0.0 0.00 0.00 0.00 77 1020.3
20260830152839 83 200 0.0 0.0 0.00 0.00 0.00 77 1020.3
20260830152336 83 253 0.0 0.0 0.00 0.00 0.00 75 1020.3
20260830151835 83 205 0.0 0.0 0.00 0.00 0.00 75 1020.3
20260830151333 84 222 0.0 0.0 0.00 0.00 0.00 74 1020.3
20260830150831 84 231 0.0 0.0 0.00 0.00 0.00 75 1020.3
20260830150256 84 287 0.0 0.0 0.00 0.00 0.00 75 1020.3
20260830145754 83 160 0.0 0.0 0.00 0.00 0.00 76 1020.3
20260830145252 83 158 0.0 0.0 0.00 0.00 0.00 78 1020.3
20260830144750 83 212 0.0 0.0 0.00 0.00 0.00 78 1020.3
20260830144248 83 285 0.0 0.0 0.00 0.00 0.00 78 1020.3
20260830143746 83 275 0.0 0.0 0.00 0.00 0.00 78 1020.3
20260830143210 83 212 0.0 0.0 0.00 0.00 0.00 80 1020.3
20260830142636 83 122 0.0 0.0 0.00 0.00 0.00 79 1020.3
20260830142135 82 212 0.0 0.0 0.00 0.00 0.00 80 1020.3
20260830141632 81 255 0.0 0.0 0.00 0.00 0.00 79 1020.3
20260830141131 81 89 0.0 0.0 0.00 0.00 0.00 80 1020.3
20260830140629 82 153 0.0 0.0 0.00 0.00 0.00 79 1020.3
20260830140056 82 79 0.0 0.0 0.00 0.00 0.00 78 1020.3
20260830135554 83 255 0.0 0.0 0.00 0.00 0.00 78 1020.3
20260830135051 82 166 0.0 0.0 0.00 0.00 0.00 81 1020.3
20260830134445 82 257 0.0 0.0 0.00 0.00 0.00 82 1020.3
20260830133938 81 190 0.0 0.0 0.00 0.00 0.00 82 1020.3
20260830133437 80 238 0.0 0.0 0.00 0.00 0.00 84 1020.3
20260830132935 79 238 0.0 0.0 0.00 0.00 0.00 87 1020.3
20260830132430 78 239 0.0 0.0 0.00 0.00 0.00 89 1020.3
20260830131855 77 242 0.0 0.0 0.00 0.00 0.00 92 1020.3
20260830131354 76 271 0.0 0.0 0.00 0.00 0.00 93 1020.3
20260830130852 75 271 0.0 0.0 0.00 0.00 0.00 95 1020.3
20260830130351 74 271 0.0 0.0 0.00 0.00 0.00 95 1020.3
20260830125848 73 271 0.0 0.0 0.00 0.00 0.00 95 1020.3
20260830125347 73 271 0.0 0.0 0.00 0.00 0.00 95 1020.0
20260830124845 72 271 0.0 0.0 0.00 0.00 0.00 95 1020.0
20260830124344 72 201 0.0 0.0 0.00 0.00 0.00 95 1020.0
20260830123841 72 201 0.0 0.0 0.00 0.00 0.00 95 1020.0
20260830123339 71 201 0.0 0.0 0.00 0.00 0.00 95 1020.0
20260830122836 71 201 0.0 0.0 0.00 0.00 0.00 95 1020.0
20260830122334 71 201 0.0 0.0 0.00 0.00 0.00 95 1019.6
20260830121833 71 202 0.0 0.0 0.00 0.00 0.00 95 1019.6
20260830121330 70 201 0.0 0.0 0.00 0.00 0.00 95 1019.6
20260830120829 70 201 0.0 0.0 0.00 0.00 0.00 95 1019.6
20260830120327 70 201 0.0 0.0 0.00 0.00 0.00 95 1019.6
20260830115753 70 201 0.0 0.0 0.00 0.00 0.00 95 1019.6
20260830115251 70 201 0.0 0.0 0.00 0.00 0.00 95 1019.6
20260830114748 70 203 0.0 0.0 0.00 0.00 0.00 95 1019.6
20260830114246 69 201 0.0 0.0 0.00 0.00 0.00 95 1019.3
20260830113743 69 201 0.0 0.0 0.00 0.00 0.00 95 1019.3
20260830113242 69 201 0.0 0.0 0.00 0.00 0.00 95 1019.3
20260830112739 69 201 0.0 0.0 0.00 0.00 0.00 95 1019.3
20260830112236 69 201 0.0 0.0 0.00 0.00 0.00 95 1019.3
20260830111734 69 201 0.0 0.0 0.00 0.00 0.00 95 1019.3
20260830111226 69 202 0.0 0.0 0.00 0.00 0.00 95 1019.0
20260830110724 69 203 0.0 0.0 0.00 0.00 0.00 95 1019.0
20260830110222 69 202 0.0 0.0 0.00 0.00 0.00 95 1019.0
20260830105719 69 202 0.0 0.0 0.00 0.00 0.00 95 1019.0
20260830105217 69 203 0.0 0.0 0.00 0.00 0.00 95 1019.0
20260830104715 69 219 0.0 0.0 0.00 0.00 0.00 95 1019.0
20260830104211 69 219 0.0 0.0 0.00 0.00 0.00 95 1019.0
20260830103709 69 219 0.0 0.0 0.00 0.00 0.00 95 1019.0
20260830103207 69 219 0.0 0.0 0.00 0.00 0.00 95 1019.0
20260830102632 69 219 0.0 0.0 0.00 0.00 0.00 95 1019.0
20260830102131 69 219 0.0 0.0 0.00 0.00 0.00 95 1019.0
20260830101629 69 219 0.0 0.0 0.00 0.00 0.00 95 1019.0
20260830101127 69 219 0.0 0.0 0.00 0.00 0.00 95 1019.0
20260830100552 69 219 0.0 0.0 0.00 0.00 0.00 95 1018.6
20260830100051 69 219 0.0 0.0 0.00 0.00 0.00 95 1018.6
20260830095549 69 219 0.0 0.0 0.00 0.00 0.00 95 1018.6
20260830095048 69 219 0.0 0.0 0.00 0.00 0.00 95 1018.6
20260830094546 69 219 0.0 0.0 0.00 0.00 0.00 95 1018.6
20260830094045 69 219 0.0 0.0 0.00 0.00 0.00 95 1018.6
20260830093543 69 219 0.0 0.0 0.00 0.00 0.00 95 1018.6
20260830093042 69 219 0.0 0.0 0.00 0.00 0.00 95 1018.6
20260830092539 69 219 0.0 0.0 0.00 0.00 0.00 95 1018.6
20260830092036 69 219 0.0 0.0 0.00 0.00 0.00 95 1018.6
20260830091503 69 219 0.0 0.0 0.00 0.00 0.00 95 1018.6
20260830091000 69 219 0.0 0.0 0.00 0.00 0.00 95 1018.6
20260830090458 69 219 0.0 0.0 0.00 0.00 0.00 95 1018.6
20260830085955 69 219 0.0 0.0 0.00 0.00 0.00 95 1018.6
20260830085454 69 219 0.0 0.0 0.00 0.00 0.00 95 1018.6
20260830084952 69 219 0.0 0.0 0.00 0.00 0.00 95 1018.6
20260830084451 69 219 0.0 0.0 0.00 0.00 0.00 95 1018.6
20260830083949 69 219 0.0 0.0 0.00 0.00 0.00 95 1018.6
20260830083447 69 219 0.0 0.0 0.00 0.00 0.00 95 1018.6
20260830082945 69 219 0.0 0.0 0.00 0.00 0.00 95 1018.6
20260830082339 69 219 0.0 0.0 0.00 0.00 0.00 95 1018.6
20260830081837 69 219 0.0 0.0 0.00 0.00 0.00 95 1018.6
20260830081335 69 219 0.0 0.0 0.00 0.00 0.00 95 1018.6
20260830080832 69 219 0.0 0.0 0.00 0.00 0.00 95 1018.6
20260830080329 70 219 0.0 0.0 0.00 0.00 0.00 95 1018.3
20260830075828 69 219 0.0 0.0 0.00 0.00 0.00 95 1018.3
20260830075326 69 219 0.0 0.0 0.00 0.00 0.00 95 1018.3
20260830074824 69 219 0.0 0.0 0.00 0.00 0.00 95 1018.6
20260830074323 69 219 0.0 0.0 0.00 0.00 0.00 95 1018.6
20260830073821 69 219 0.0 0.0 0.00 0.00 0.00 95 1018.6
20260830073319 69 219 0.0 0.0 0.00 0.00 0.00 95 1018.6
20260830072818 69 219 0.0 0.0 0.00 0.00 0.00 95 1018.6
20260830072315 69 219 0.0 0.0 0.00 0.00 0.00 95 1018.6
20260830071812 69 219 0.0 0.0 0.00 0.00 0.00 95 1018.6
20260830071310 69 219 0.0 0.0 0.00 0.00 0.00 95 1018.6
20260830070734 69 219 0.0 0.0 0.00 0.00 0.00 95 1018.6
20260830070232 69 219 0.0 0.0 0.00 0.00 0.00 95 1018.3
20260830065729 70 219 0.0 0.0 0.00 0.00 0.00 95 1018.3
20260830065228 70 219 0.0 0.0 0.00 0.00 0.00 95 1018.3
20260830064726 70 219 0.0 0.0 0.00 0.00 0.00 95 1018.3
20260830064224 70 219 0.0 0.0 0.00 0.00 0.00 95 1018.3
20260830063722 70 219 0.0 0.0 0.00 0.00 0.00 95 1018.3
20260830063045 70 219 0.0 0.0 0.00 0.00 0.00 95 1018.3
20260830062544 70 219 0.0 0.0 0.00 0.00 0.00 95 1018.3
20260830062042 70 219 0.0 0.0 0.00 0.00 0.00 95 1018.3
20260830061539 70 219 0.0 0.0 0.00 0.00 0.00 95 1018.3
20260830061038 70 219 0.0 0.0 0.00 0.00 0.00 95 1018.3
20260830060537 70 219 0.0 0.0 0.00 0.00 0.00 95 1018.3
20260830060035 70 219 0.0 0.0 0.00 0.00 0.00 95 1018.6
20260830055458 70 219 0.0 0.0 0.00 0.00 0.00 95 1018.6
20260830054956 70 219 0.0 0.0 0.00 0.00 0.00 95 1018.6
20260830054350 70 219 0.0 0.0 0.00 0.00 0.00 95 1018.6
20260830053848 70 219 0.0 0.0 0.00 0.00 0.00 95 1018.3
20260830053347 71 219 0.0 0.0 0.00 0.00 0.00 95 1018.6
20260830052845 71 219 0.0 0.0 0.00 0.00 0.00 95 1018.6
20260830052343 71 219 0.0 0.0 0.00 0.00 0.00 95 1018.6
20260830051840 71 219 0.0 0.0 0.00 0.00 0.00 95 1018.6
20260830051338 71 219 0.0 0.0 0.00 0.00 0.00 95 1018.6
20260830050836 71 219 0.0 0.0 0.00 0.00 0.00 95 1018.6
20260830050333 71 219 0.0 0.0 0.00 0.00 0.00 95 1018.6
20260830045832 71 219 0.0 0.0 0.00 0.00 0.00 95 1018.6
20260830045330 71 219 0.0 0.0 0.00 0.00 0.00 95 1018.6
20260830044828 71 220 0.0 0.0 0.00 0.00 0.00 95 1018.6
20260830044327 71 219 0.0 0.0 0.00 0.00 0.00 95 1018.6
20260830043819 71 219 0.0 0.0 0.00 0.00 0.00 95 1018.6
20260830043314 71 219 0.0 0.0 0.00 0.00 0.00 95 1018.6
20260830042812 71 219 0.0 0.0 0.00 0.00 0.00 95 1018.6
20260830042310 71 219 0.0 0.0 0.00 0.00 0.00 95 1018.6
20260830041807 71 219 0.0 0.0 0.00 0.00 0.00 95 1018.6
20260830041305 71 219 0.0 0.0 0.00 0.00 0.00 95 1018.6
20260830040757 72 219 0.0 0.0 0.00 0.00 0.00 95 1018.6
20260830040248 72 219 0.0 0.0 0.00 0.00 0.00 95 1018.6
20260830035740 72 219 0.0 0.0 0.00 0.00 0.00 95 1018.6
20260830035238 72 219 0.0 0.0 0.00 0.00 0.00 95 1018.6
20260830034737 72 219 0.0 0.0 0.00 0.00 0.00 95 1018.6
20260830034236 72 219 0.0 0.0 0.00 0.00 0.00 95 1018.3
20260830033733 72 219 0.0 0.0 0.00 0.00 0.00 95 1018.6
20260830033232 72 219 0.0 0.0 0.00 0.00 0.00 95 1018.6
20260830032658 72 219 0.0 0.0 0.00 0.00 0.00 95 1018.6
20260830032157 72 219 0.0 0.0 0.00 0.00 0.00 95 1018.6
20260830031654 72 219 0.0 0.0 0.00 0.00 0.00 95 1018.3
20260830031152 72 219 0.0 0.0 0.00 0.00 0.00 95 1018.3
20260830030651 73 219 0.0 0.0 0.00 0.00 0.00 95 1018.3
20260830030149 73 219 0.0 0.0 0.00 0.00 0.00 95 1018.3
20260830025648 73 219 0.0 0.0 0.00 0.00 0.00 95 1018.3
20260830025146 73 219 0.0 0.0 0.00 0.00 0.00 95 1018.3
20260830024613 73 219 0.0 0.0 0.00 0.00 0.00 95 1018.3
20260830024110 73 219 0.0 0.0 0.00 0.00 0.00 95 1017.9
20260830023609 73 219 0.0 0.0 0.00 0.00 0.00 94 1017.9
20260830023107 73 219 0.0 0.0 0.00 0.00 0.00 94 1017.9
20260830022605 73 219 0.0 0.0 0.00 0.00 0.00 94 1017.9
20260830022103 73 219 0.0 0.0 0.00 0.00 0.00 94 1017.9
20260830021600 74 219 0.0 0.0 0.00 0.00 0.00 94 1017.9
20260830021059 74 219 0.0 0.0 0.00 0.00 0.00 94 1017.9
20260830020557 74 220 0.0 0.0 0.00 0.00 0.00 94 1017.6
20260830020053 74 219 0.0 0.0 0.00 0.00 0.00 94 1017.6
20260830015551 74 219 0.0 0.0 0.00 0.00 0.00 93 1017.6
20260830015049 74 219 0.0 0.0 0.00 0.00 0.00 93 1017.6
20260830014546 74 219 0.0 0.0 0.00 0.00 0.00 94 1017.3
20260830014044 74 219 0.0 0.0 0.00 0.00 0.00 94 1017.3
20260830013543 75 219 0.0 0.0 0.00 0.00 0.00 93 1017.3
20260830013042 75 219 0.0 0.0 0.00 0.00 0.00 93 1016.9
20260830012508 75 219 0.0 0.0 0.00 0.00 0.00 93 1016.9
20260830011934 75 219 0.0 0.0 0.00 0.00 0.00 93 1016.9
20260830011433 75 219 0.0 0.0 0.00 0.00 0.00 93 1016.9
20260830010930 75 219 0.0 0.0 0.00 0.00 0.00 93 1016.6
20260830010358 75 219 0.0 0.0 0.00 0.00 0.00 93 1016.6
20260830005856 75 219 0.0 0.0 0.00 0.00 0.00 92 1016.6
20260830005355 76 219 0.0 0.0 0.00 0.00 0.00 92 1016.6
20260830004820 76 220 0.0 0.0 0.00 0.00 0.00 92 1016.6
20260830004318 76 219 0.0 0.0 0.00 0.00 0.00 91 1016.3
20260830003744 77 219 0.0 0.0 0.00 0.00 0.00 91 1016.3
20260830003243 77 219 0.0 0.0 0.00 0.00 0.00 91 1016.3
20260830002741 77 219 0.0 0.0 0.00 0.00 0.00 90 1016.3
20260830002228 78 219 0.0 0.0 0.00 0.00 0.00 90 1016.3
20260830001726 78 220 0.0 0.0 0.00 0.00 0.00 89 1016.3
20260830001225 78 219 0.0 0.0 0.00 0.00 0.00 89 1016.3
20260830000723 79 220 0.0 0.0 0.00 0.00 0.00 88 1016.3